This is the latest recevied weather packets stored in our database for station/object W4OTS. If no packets are shown the sender has not sent any weather packets the latest 10 day(s).
| Time | Temp. | Humidity | Pressure | Rain* | Wind** | Luminosity | Snow |
|---|---|---|---|---|---|---|---|
| 1777559528 | 20° C | 71% | 1013.4 hPa | 0 mm | - | 672 W/m² | - |
| 1777559226 | 19.44° C | 73% | 1013.4 hPa | 0 mm | - | 627 W/m² | - |
| 1777558920 | 18.89° C | 74% | 1013.4 hPa | 0 mm | - | 574 W/m² | - |
| 1777558616 | 18.89° C | 73% | 1013.5 hPa | 0 mm | - | 644 W/m² | - |
| 1777558312 | 18.33° C | 74% | 1013.7 hPa | 0 mm | - | 216 W/m² | - |
| 1777558009 | 18.33° C | 72% | 1013.8 hPa | 0 mm | - | 258 W/m² | - |
| 1777557706 | 18.33° C | 74% | 1013.6 hPa | 0 mm | - | 252 W/m² | - |
| 1777557402 | 17.78° C | 77% | 1013.7 hPa | 0 mm | - | 277 W/m² | - |
| 1777557098 | 17.78° C | 81% | 1013.6 hPa | 0 mm | - | 219 W/m² | - |
| 1777556794 | 17.22° C | 84% | 1013.5 hPa | 0 mm | - | 253 W/m² | - |
| 1777556491 | 16.67° C | 87% | 1013.6 hPa | 0 mm | - | 149 W/m² | - |
| 1777556184 | 16.11° C | 87% | 1013.8 hPa | 0 mm | - | 138 W/m² | - |
| 1777555881 | 15.56° C | 89% | 1013.9 hPa | 0 mm | - | 97 W/m² | - |
| 1777555577 | 15.56° C | 88% | 1013.8 hPa | 0 mm | - | 51 W/m² | - |
| 1777555274 | 15.56° C | 90% | 1013.8 hPa | 0 mm | - | 58 W/m² | - |
| 1777554970 | 15° C | 89% | 1013.7 hPa | 0 mm | - | 69 W/m² | - |
| 1777554667 | 15° C | 90% | 1013.9 hPa | 0 mm | - | 49 W/m² | - |
| 1777554364 | 15° C | 90% | 1013.9 hPa | 0 mm | - | 35 W/m² | - |
| 1777554061 | 15° C | 90% | 1014.1 hPa | 0 mm | - | 26 W/m² | - |
| 1777553756 | 14.44° C | 90% | 1013.9 hPa | 0 mm | - | 32 W/m² | - |
| 1777553454 | 14.44° C | 90% | 1014.1 hPa | 0 mm | - | 11 W/m² | - |
| 1777553149 | 14.44° C | 90% | 1013.9 hPa | 0 mm | - | 11 W/m² | - |
| 1777552844 | 14.44° C | 90% | 1014 hPa | 0 mm | - | 12 W/m² | - |
| 1777552539 | 14.44° C | 88% | 1014.2 hPa | 0 mm | - | 15 W/m² | - |
| 1777552236 | 14.44° C | 90% | 1013.9 hPa | 0 mm | - | 25 W/m² | - |
* Rain latest hour (hover to see other rain measurements)
** Current wind speed in m/s (hover to see current wind gust speed)